ECMWFNIL_prec_cthk_096.txt.gz
RH
39 38 37 36 35 36 36 36 35 34 33 33 32 31 31 33 35 37 39 39 38 37 37 37 37 37 36 36 36 36 36 36 37 36 36 37 36 36 37 39 42 47
38 37 36 36 35 36 36 37 36 35 35 33 33 33 33 34 35 36 37 37 36 35 35 37 38 38 37 36 37 38 37 37 37 37 37 38 37 37 37 38 40 44
38 37 37 36 37 37 38 38 38 37 35 34 34 34 34 35 35 36 36 37 36 35 35 36 36 37 37 36 36 37 38 38 38 38 38 38 38 38 38 37 38 41
39 39 39 39 39 39 39 39 39 37 36 35 34 34 34 33 34 34 35 36 37 36 35 36 36 35 35 34 35 36 38 38 39 39 39 39 39 38 39 38 38 39
41 42 42 42 42 41 41 40 39 38 37 36 35 34 34 33 32 33 33 34 35 36 36 36 36 35 35 34 34 35 36 37 37 37 38 39 39 40 39 39 39 39
43 44 44 44 43 42 41 41 40 40 38 37 36 35 35 35 34 33 33 34 34 35 35 35 36 36 36 36 36 36 36 36 36 35 36 37 38 39 39 39 39 39
44 46 46 46 45 43 43 43 42 42 40 39 38 36 36 36 36 35 35 35 35 35 36 35 36 36 36 36 36 36 36 36 36 36 36 36 37 37 37 37 38 38
47 48 49 48 47 46 46 46 45 44 43 41 40 38 39 39 38 37 37 37 37 37 37 37 36 36 35 35 35 35 36 36 36 36 36 36 35 36 36 35 35 36
50 51 51 50 49 49 48 47 46 45 45 44 42 41 41 41 40 40 40 40 39 39 38 38 37 37 36 36 35 35 35 35 36 35 36 36 35 35 35 34 34 34
52 53 52 51 51 51 50 48 47 47 46 46 44 44 44 44 43 43 42 42 42 42 41 40 39 39 38 38 37 37 36 36 36 35 35 35 35 35 35 35 35 34
53 52 52 52 53 54 52 51 49 49 49 48 47 46 46 45 44 44 44 44 44 44 43 42 41 41 40 40 40 39 39 38 37 37 36 35 34 35 35 36 35 34
53 53 52 54 55 55 53 52 51 51 51 50 49 49 47 45 44 44 44 44 44 44 43 42 42 41 41 41 41 40 40 39 39 39 38 38 37 36 35 35 35 35
55 54 55 56 57 56 54 53 53 53 52 52 51 49 46 45 44 44 44 43 43 42 41 41 40 40 40 40 39 39 40 39 39 39 39 40 40 40 38 37 36 35
56 57 57 57 58 56 55 55 54 54 54 52 50 46 45 44 43 42 41 40 39 38 38 38 37 37 37 37 37 38 38 38 39 39 39 40 40 41 41 40 38 37
58 58 58 58 59 58 57 56 56 55 53 49 46 43 41 40 38 36 34 33 32 32 31 31 30 30 29 30 30 31 31 32 33 35 36 38 39 40 40 40 40 40
58 58 58 59 59 58 57 57 55 51 46 41 39 37 35 33 31 29 28 27 27 26 26 26 25 25 24 24 23 24 24 25 26 28 30 32 35 36 37 38 39 39
59 59 59 59 58 56 55 51 46 40 35 33 32 31 29 28 27 26 25 25 25 24 24 23 23 22 21 20 20 20 20 20 21 23 25 28 31 33 34 35 36 37
60 59 58 56 54 51 46 40 35 31 29 29 28 26 24 22 21 20 20 20 20 20 19 19 19 18 17 17 16 16 16 16 17 18 20 24 27 30 32 32 34 34
58 55 53 50 46 41 35 32 30 29 28 27 24 22 19 17 16 15 14 14 14 15 16 17 17 16 15 15 14 14 15 15 15 15 16 19 23 25 28 29 31 32
52 49 45 41 37 34 32 31 30 28 25 22 19 17 15 14 12 11 11 12 13 15 16 16 16 15 15 14 14 14 14 15 15 15 16 18 20 22 25 26 28 29
45 42 39 37 35 34 32 29 26 23 20 18 16 14 13 11 10 10 10 12 14 16 16 16 16 15 15 15 15 14 15 15 16 16 17 18 20 22 24 27 29 30
40 38 37 36 34 31 28 25 22 19 17 15 13 11 10 10 9 9 10 12 14 16 16 17 16 16 15 15 15 15 15 15 15 16 17 19 20 23 25 29 32 34
38 36 34 32 29 27 25 22 19 17 14 12 11 9 9 9 10 10 11 13 15 16 16 17 16 16 16 16 15 15 15 15 15 16 18 19 20 23 26 31 37 39
36 32 29 27 26 24 22 20 17 14 12 11 10 10 11 11 11 12 12 13 15 15 16 17 16 16 16 16 16 16 16 16 16 16 18 19 21 22 26 32 38 42
30 27 25 24 23 22 20 17 14 13 12 11 11 11 12 12 12 12 13 14 14 15 16 17 16 16 16 16 17 17 17 18 18 18 19 21 22 23 26 31 38 42
25 24 23 23 21 19 17 14 13 13 12 12 12 12 12 12 12 13 13 14 14 14 15 16 16 16 16 17 18 18 19 20 20 20 21 22 24 26 28 32 37 42

ECMWFNIL_prec_cthk_102.txt.gz
RH
52 51 50 48 46 45 44 45 43 41 40 40 40 40 40 40 40 40 40 39 38 37 37 37 36 35 34 34 34 34 34 34 35 36 37 37 37 37 38 37 37 38
51 49 48 47 46 44 43 44 43 41 39 40 40 40 41 41 41 40 40 39 39 40 40 39 39 38 37 36 36 35 35 35 35 36 36 36 36 36 36 36 36 37
53 51 50 48 47 47 47 48 45 42 41 41 41 42 42 42 41 41 40 40 41 41 41 41 41 40 39 39 38 38 38 37 36 36 36 36 36 36 36 35 35 35
53 53 52 51 51 50 51 50 47 44 43 43 43 43 43 43 42 41 41 42 42 43 43 42 42 40 39 38 38 37 37 37 37 36 36 37 37 36 37 37 36 37
56 56 55 54 55 54 52 50 49 47 46 45 45 45 45 44 43 43 43 43 43 42 42 41 40 39 37 36 36 36 36 35 36 35 35 37 37 36 37 39 39 40
63 63 60 56 55 54 53 51 50 49 48 47 46 46 45 43 43 42 42 41 41 41 41 40 39 38 36 36 35 35 35 35 34 34 34 35 37 39 39 39 40 42
64 63 62 59 54 52 53 52 51 51 50 49 47 46 44 43 42 41 41 41 40 40 40 40 38 37 35 35 35 34 33 33 32 31 31 31 33 36 38 37 38 41
58 57 60 59 52 49 51 52 52 52 51 50 48 46 44 42 41 41 40 40 40 40 40 39 37 35 34 34 33 31 29 27 26 25 25 25 25 29 33 33 33 35
56 54 55 54 50 47 47 48 50 50 50 49 47 44 43 42 40 40 40 40 40 40 39 37 35 34 33 31 28 25 23 21 21 20 20 22 26 30 32 31 31 32
59 55 53 52 50 47 45 47 48 49 48 46 44 42 41 40 39 39 40 40 40 40 38 35 33 32 29 25 22 20 19 18 18 19 21 24 29 32 31 31 31 31
59 55 53 53 51 48 48 48 48 47 45 44 42 41 40 40 40 40 40 40 40 37 34 32 30 27 23 20 19 18 17 17 17 19 22 27 31 31 30 30 29 29
59 54 52 51 50 50 50 48 47 45 44 43 42 42 42 42 41 41 40 39 36 33 31 29 25 22 19 18 18 17 16 16 16 17 21 27 30 29 29 28 27 28
58 53 50 49 48 48 49 49 47 46 45 45 45 44 43 42 41 40 37 35 33 31 29 25 21 19 18 18 17 16 16 15 15 16 19 24 28 28 27 26 25 26
55 53 51 50 49 49 50 50 49 48 47 46 44 43 42 41 39 36 34 32 31 29 25 22 20 19 18 17 16 16 14 13 14 16 18 22 26 27 26 24 24 25
52 52 51 51 51 51 51 51 51 49 47 44 42 41 40 38 36 33 32 31 28 25 23 22 21 20 18 16 15 13 12 12 15 19 20 22 25 26 25 25 25 26
53 52 52 52 53 53 51 50 49 46 44 42 41 40 38 36 34 30 27 25 24 23 22 21 20 18 16 14 13 11 10 10 15 20 21 23 24 25 25 25 26 27
55 52 52 52 53 53 50 47 45 44 43 42 40 38 36 32 29 25 22 22 23 23 21 19 18 16 14 12 11 11 10 9 13 18 20 22 24 25 26 26 26 27
59 57 56 57 57 54 49 46 44 43 41 40 37 34 30 26 22 20 20 21 22 21 18 16 15 13 12 11 10 11 9 9 14 18 21 24 25 25 26 27 27 27
66 65 64 62 59 53 48 44 42 40 38 35 31 27 23 20 19 19 20 19 20 20 17 14 12 12 11 11 10 11 9 10 17 22 23 26 26 26 27 27 27 27
68 65 60 55 51 46 42 40 37 35 33 29 25 21 19 18 18 17 17 16 16 19 18 13 11 12 11 10 11 10 8 11 18 23 25 26 26 27 27 27 28 28
57 52 47 43 40 38 36 34 32 29 26 22 19 18 17 17 17 15 14 13 12 15 19 16 11 11 11 10 11 10 9 11 17 22 26 26 25 26 26 27 28 28
46 41 37 35 34 33 32 31 27 23 20 18 17 16 15 14 14 12 12 11 10 12 18 18 12 11 12 10 10 10 9 13 17 22 26 26 25 25 25 26 29 29
41 37 34 33 33 32 29 25 21 19 18 17 16 14 13 12 11 10 10 11 10 10 16 20 15 11 12 11 11 11 11 14 18 22 25 26 25 25 24 25 28 29
39 35 33 32 29 27 23 20 19 18 16 16 14 12 10 10 10 10 9 10 10 9 14 20 18 13 12 12 12 11 12 14 17 21 26 26 24 24 24 25 27 28
38 34 32 27 23 21 20 19 18 16 15 15 14 13 10 9 10 10 9 9 10 9 11 15 17 15 13 13 13 12 13 14 15 20 26 26 23 23 24 24 25 26
34 30 28 24 20 19 19 19 17 15 14 14 14 13 10 9 10 11 10 10 10 11 12 13 13 14 14 13 14 13 14 15 15 18 24 25 22 23 24 24 25 26

ECMWFNIL_prec_cthk_105.txt.gz
RH
54 54 54 54 53 53 52 49 50 50 50 49 45 42 39 38 38 39 43 44 45 45 44 41 40 40 40 41 40 40 41 39 38 38 38 40 42 42 42 41 41 41
58 58 58 57 55 56 55 52 49 47 46 44 42 41 40 41 43 44 48 49 48 45 43 41 40 40 40 40 40 39 39 37 37 36 36 42 46 46 45 47 47 46
57 56 55 54 53 56 59 55 48 45 45 44 43 43 43 45 49 50 49 48 47 44 42 40 39 39 39 38 38 38 37 36 35 34 34 40 45 45 46 49 49 48
54 51 49 49 50 54 56 52 48 47 47 45 46 47 49 52 54 51 47 45 44 42 40 38 38 37 37 37 37 37 37 36 35 34 34 37 39 42 44 46 46 45
55 52 50 50 54 57 57 53 50 48 46 47 50 51 51 53 51 46 45 43 42 41 39 37 37 36 36 37 37 37 37 36 34 32 35 36 36 38 39 39 40 40
62 61 59 60 61 62 62 61 58 54 51 52 50 47 45 46 46 44 44 44 42 39 38 37 36 36 36 36 37 37 35 34 30 29 32 31 30 33 35 34 36 36
63 63 63 63 62 62 62 62 62 59 53 48 44 41 41 41 42 43 43 43 41 38 36 36 36 36 36 36 36 35 32 28 25 25 28 28 28 32 34 33 33 33
60 60 61 61 60 59 57 55 55 52 47 42 38 38 39 39 40 42 43 42 40 38 37 37 37 37 36 36 35 32 28 27 25 25 27 30 31 32 32 32 32 31
58 58 61 62 59 55 50 46 45 45 44 41 38 37 37 38 40 42 44 45 43 40 38 38 38 37 36 34 31 29 30 31 29 28 29 32 32 31 31 31 30 29
57 59 60 59 54 50 45 42 41 43 43 42 41 41 40 41 43 44 46 48 48 44 40 38 38 36 34 32 30 28 30 31 28 27 29 31 31 30 30 29 28 27
58 59 55 51 48 46 43 40 38 41 43 43 43 44 44 46 50 52 53 51 47 42 39 37 36 35 33 31 28 25 26 28 28 28 30 30 30 29 28 28 27 26
60 57 50 47 46 44 42 39 39 42 45 47 47 47 49 50 51 53 54 51 44 39 39 37 36 35 32 29 24 19 23 30 32 31 31 29 29 28 26 26 26 26
58 53 48 46 44 42 40 39 39 42 46 49 50 53 55 55 53 51 51 49 43 39 39 37 35 32 27 23 19 16 23 33 32 29 29 27 26 26 25 24 23 24
51 47 45 43 42 41 41 39 39 41 45 46 46 50 55 57 57 55 54 51 46 41 39 35 30 25 20 18 16 15 21 30 30 27 27 26 24 24 24 23 23 23
46 45 43 42 42 43 42 41 41 42 43 43 44 47 52 56 58 58 58 56 48 40 35 29 23 20 17 16 16 13 15 24 28 26 25 25 24 24 23 23 23 23
48 46 44 43 44 47 48 47 44 42 42 43 45 47 50 54 58 59 59 55 44 33 27 22 19 19 18 15 15 12 10 16 25 26 24 25 24 24 23 23 23 24
51 50 49 49 50 52 52 49 46 46 47 48 48 48 49 53 57 56 52 46 35 25 21 20 18 17 16 13 12 10 8 13 23 25 24 24 24 23 23 23 24 25
55 54 53 51 50 52 52 52 53 54 54 53 51 49 48 49 49 45 42 39 32 23 18 19 17 15 14 11 9 8 7 13 23 25 24 24 23 23 23 23 24 25
55 53 49 48 51 55 57 58 57 54 51 49 46 43 40 37 35 33 33 36 34 25 17 16 15 12 11 9 8 8 7 13 23 25 24 24 23 22 22 23 24 25
53 52 52 53 56 57 54 51 49 47 46 45 42 39 34 29 24 22 24 31 35 28 18 13 12 11 9 9 8 8 9 16 24 25 24 23 23 22 21 22 24 25
57 57 57 54 50 47 44 42 43 44 44 42 39 35 30 26 22 20 20 26 34 32 19 11 11 10 9 9 9 8 11 18 24 25 24 24 22 21 20 21 23 24
58 55 52 49 45 42 39 41 44 43 40 37 34 30 26 24 22 20 17 19 26 29 21 11 9 10 9 9 9 8 10 18 24 24 24 23 22 20 20 20 22 23
52 49 47 46 45 43 41 42 43 40 35 32 30 29 28 26 22 18 14 12 15 20 19 12 9 10 10 9 10 8 9 17 24 24 23 22 21 21 20 20 20 22
46 45 45 45 44 43 43 42 38 34 31 29 29 29 29 28 25 20 15 11 9 10 12 11 10 10 10 10 10 9 10 14 20 22 23 22 20 20 20 20 20 21
44 45 45 45 44 43 41 38 35 32 31 29 28 27 26 25 24 22 19 16 14 11 10 10 11 11 10 11 11 9 10 13 16 18 21 23 21 19 20 20 21 22
46 46 45 44 43 42 39 36 33 31 29 28 26 25 25 24 23 22 21 20 21 18 13 11 13 13 10 10 11 10 10 12 14 15 17 21 23 21 20 21 21 23

ECMWFNIL_prec_cthk_111.txt.gz
RH
48 49 50 51 53 53 54 55 55 56 56 54 49 45 44 43 42 40 39 37 36 35 34 34 33 34 33 33 32 31 30 29 28 29 29 29 30 31 33 37 40 42
54 56 56 57 58 59 59 58 58 57 54 49 46 44 45 46 45 42 41 39 39 37 35 33 31 30 30 29 28 27 27 27 26 27 28 30 32 32 34 38 40 41
61 62 63 62 62 61 60 59 56 53 49 47 48 48 47 45 43 41 39 38 37 36 34 32 29 28 27 26 25 24 25 26 27 29 31 33 34 32 35 39 40 40
65 65 64 63 60 59 57 54 51 49 48 50 52 51 47 43 41 39 36 34 33 32 32 31 30 28 27 25 25 24 25 27 29 32 33 33 34 34 35 38 39 38
64 63 61 58 55 53 51 49 49 51 52 54 54 51 46 42 39 36 34 31 30 30 30 30 29 28 27 26 25 25 26 27 30 33 33 33 34 35 36 38 36 33
59 58 57 54 52 52 52 51 52 53 54 54 51 47 44 41 37 33 31 29 29 29 29 30 30 28 28 27 26 25 26 29 31 33 34 35 36 36 37 37 32 27
57 57 56 55 55 55 55 53 51 50 49 48 46 44 41 38 34 31 29 28 28 29 29 29 29 28 28 27 25 26 27 29 31 33 35 37 36 34 34 31 27 23
58 58 58 57 56 55 52 48 45 44 44 44 43 42 39 35 32 29 28 29 29 29 29 28 27 27 27 25 24 27 31 34 35 35 37 39 37 35 33 28 23 20
59 58 57 55 52 49 46 43 42 42 42 42 41 40 38 34 31 28 29 29 28 28 27 26 25 25 25 24 24 27 34 42 45 43 43 44 42 39 33 26 21 19
59 58 55 51 47 44 42 41 41 41 40 40 39 37 35 32 29 28 28 28 27 27 25 24 24 25 29 30 30 33 41 49 52 48 46 47 44 39 31 24 21 19
56 56 54 50 46 44 44 43 42 40 40 40 40 37 33 30 28 27 27 26 25 24 24 25 26 29 36 37 36 39 46 51 52 48 45 44 40 33 27 22 20 19
55 54 52 49 47 46 47 47 43 41 40 42 42 39 34 29 27 26 24 23 24 26 27 28 30 34 39 40 41 42 44 48 49 43 40 38 33 26 22 20 19 17
56 53 52 50 48 48 48 46 43 40 40 41 41 39 33 28 24 23 23 25 28 30 31 32 34 37 39 40 42 43 42 41 39 34 32 33 28 22 20 19 16 16
56 53 52 50 49 48 46 43 42 41 42 41 40 35 28 23 22 24 28 32 33 33 32 33 35 36 35 35 36 37 35 34 32 29 29 29 25 20 18 17 16 16
56 53 53 50 48 47 45 42 43 44 45 45 42 33 24 23 28 32 34 33 31 30 30 31 31 29 28 28 29 29 28 29 31 30 27 26 23 19 17 17 17 18
56 55 53 49 47 45 43 43 42 43 44 42 39 32 29 32 35 34 31 28 27 28 28 27 25 23 22 22 23 24 25 29 31 28 24 24 23 20 18 19 19 19
56 56 52 48 45 41 39 39 39 38 36 34 35 37 37 37 33 28 25 26 27 27 26 24 21 20 19 19 20 21 24 26 26 23 21 22 22 21 20 20 20 19
56 52 48 44 41 38 37 36 34 32 32 35 41 41 36 29 25 24 26 27 27 25 22 20 18 18 18 18 18 19 20 21 22 21 20 20 22 21 20 20 20 18
53 46 42 39 38 37 36 34 34 35 37 40 38 32 25 22 23 26 27 26 25 22 19 17 16 16 16 16 15 15 17 19 22 23 22 20 21 21 20 21 20 19
47 41 39 38 37 37 36 36 37 37 36 32 26 22 22 25 26 27 26 25 22 20 17 16 15 15 14 13 11 11 12 16 20 22 23 21 21 21 21 21 20 20
44 41 39 38 38 38 38 38 35 30 27 24 21 22 25 27 27 27 25 23 20 18 16 15 14 13 11 9 8 8 8 11 15 19 22 21 20 21 22 22 20 21
43 40 38 38 38 39 37 33 27 24 24 23 22 23 26 28 28 25 23 21 18 16 15 14 13 11 9 7 7 7 7 8 11 16 19 21 21 22 23 23 22 23
39 37 38 38 38 36 31 26 23 24 25 23 23 25 28 29 27 24 21 19 17 15 14 12 11 9 7 7 6 6 7 7 9 12 16 19 21 22 23 25 25 24
38 37 38 37 35 30 25 23 24 26 25 25 26 28 29 28 25 22 19 17 15 15 13 11 9 7 6 6 6 7 7 6 7 9 12 16 20 21 23 25 25 23
40 40 37 34 30 26 23 24 26 27 28 28 30 31 30 27 23 20 18 16 15 14 12 10 7 6 6 7 6 7 7 6 7 8 10 13 16 17 18 21 22 21
42 39 36 32 28 26 25 28 31 32 34 36 35 33 30 26 22 19 17 16 15 13 11 8 7 6 6 6 6 7 7 7 7 8 9 11 12 13 15 18 20 21

ECMWFNIL_prec_cthk_114.txt.gz
RH
56 52 51 51 52 53 53 53 53 54 54 54 55 54 51 47 45 43 42 42 41 39 37 35 34 34 33 33 32 31 31 29 29 29 28 28 29 30 32 34 35 36
54 52 52 52 52 54 56 58 60 60 61 60 59 54 48 45 44 43 42 41 40 37 35 33 31 31 31 31 31 31 31 30 30 30 29 28 29 30 31 34 35 35
56 55 55 57 59 62 64 65 65 64 63 61 57 51 48 47 46 44 42 40 38 35 32 31 30 29 29 29 30 31 32 32 31 31 29 28 29 29 31 33 33 33
57 58 62 67 69 69 68 66 63 62 61 58 54 51 49 48 46 43 40 38 35 32 30 29 28 28 28 29 31 31 32 32 31 31 29 27 28 28 30 32 31 31
59 62 68 71 71 69 66 63 62 61 58 55 52 50 47 45 42 40 37 34 32 30 28 28 28 28 29 31 32 32 31 31 30 30 28 27 29 30 31 32 32 34
64 67 70 69 68 66 64 63 61 57 54 51 49 47 43 40 39 36 34 32 30 28 27 28 29 30 30 31 31 30 29 28 28 29 29 31 33 34 35 36 36 36
69 71 70 68 66 65 63 61 57 53 51 49 46 43 40 38 37 34 32 30 28 27 27 28 29 30 30 30 28 27 26 26 27 29 31 34 36 36 37 37 36 33
71 69 66 63 61 60 58 56 53 51 49 47 44 42 39 37 34 31 29 28 27 26 27 27 29 29 28 27 26 25 26 27 30 33 36 37 38 36 35 32 28 25
68 64 61 59 57 55 54 53 53 51 48 46 44 41 38 34 31 29 28 27 26 26 26 27 26 27 27 26 27 28 29 31 34 38 39 37 33 30 27 24 20 19
65 62 59 58 57 55 54 53 52 51 48 46 43 39 35 32 29 28 27 27 26 25 24 23 23 25 27 28 29 31 33 35 35 35 33 29 25 22 21 19 18 18
64 62 60 58 57 56 55 53 51 50 47 44 40 37 33 30 28 28 27 26 24 22 21 21 24 27 30 30 30 32 32 31 29 27 25 22 20 20 19 19 19 19
65 63 61 59 57 56 55 54 51 48 45 41 38 34 31 29 28 27 25 23 20 20 22 24 26 27 27 28 28 28 27 25 23 23 22 20 20 20 19 19 20 19
63 62 60 58 55 54 53 52 49 46 43 39 37 34 30 28 27 24 21 20 21 24 25 24 23 22 23 25 25 25 23 21 20 21 21 21 21 21 21 20 19 17
61 62 61 59 57 56 54 51 48 46 42 38 36 33 29 27 24 21 21 24 27 27 23 21 20 20 22 23 23 23 22 20 19 21 23 24 24 23 22 20 18 15
62 63 63 62 60 58 55 52 48 45 42 38 36 32 28 24 22 24 28 31 28 23 20 19 20 20 21 21 22 22 21 21 22 24 26 25 24 22 22 20 19 16
63 63 62 62 60 58 54 50 46 44 41 38 35 30 25 23 26 31 33 28 22 19 19 20 20 20 20 20 21 21 21 22 25 27 27 24 22 21 21 21 20 18
65 62 61 61 60 56 52 48 45 42 40 38 33 27 26 29 33 34 28 22 19 20 21 20 20 19 19 18 19 20 21 23 26 26 24 22 21 21 21 21 20 20
65 62 62 62 60 56 51 48 45 43 41 38 32 28 31 35 33 27 22 19 20 21 21 20 19 18 17 16 17 19 21 24 25 23 20 20 21 22 21 21 21 21
66 65 65 64 60 55 50 49 48 45 41 38 36 34 34 31 25 21 20 20 21 21 21 20 18 17 16 16 17 19 22 23 22 21 19 20 22 23 22 22 22 21
68 68 66 61 55 51 49 50 50 45 42 42 40 34 28 24 22 22 22 21 21 22 21 19 17 16 16 16 18 19 20 19 19 19 19 20 21 22 23 23 22 20
72 69 63 54 49 48 49 52 51 46 43 41 35 28 24 23 24 23 22 22 22 22 20 18 17 16 16 16 17 17 17 16 17 18 19 19 19 21 22 22 20 19
72 66 57 50 47 49 50 51 50 46 40 33 27 24 25 25 24 24 23 23 23 21 19 17 17 16 16 15 14 12 12 14 16 17 17 17 18 19 19 19 18 18
65 57 51 49 48 49 49 49 48 42 33 26 24 25 26 26 25 25 24 23 23 21 19 17 16 16 16 14 12 9 8 11 14 16 15 15 16 17 16 16 17 19
59 53 49 47 46 46 47 46 42 33 26 24 25 27 27 27 26 26 26 25 23 20 18 17 17 16 15 12 9 7 7 8 11 13 13 14 15 15 14 15 18 20
59 54 48 45 44 45 45 41 34 27 24 25 27 28 28 28 28 28 27 25 22 19 18 18 17 16 14 10 7 7 7 7 8 10 11 13 14 13 13 15 18 19
59 52 46 44 45 44 42 35 28 25 25 26 28 29 29 29 30 30 27 24 21 20 19 18 18 15 11 8 7 6 7 7 8 9 10 11 12 12 13 15 17 18

ECMWFNIL_prec_cthk_117.txt.gz
RH
73 68 63 59 56 56 58 59 60 58 56 54 52 53 53 52 49 46 43 41 41 40 38 35 33 32 31 30 28 27 27 26 26 26 26 26 26 26 25 23 21 20
65 62 59 57 56 58 59 60 59 57 56 56 57 59 57 52 48 45 43 42 41 38 36 34 33 32 30 29 27 26 26 26 25 26 26 25 25 24 23 21 21 21
60 59 57 57 58 60 60 60 59 60 61 63 64 63 57 51 48 45 43 42 39 36 34 33 32 30 29 27 26 25 25 26 26 26 25 24 24 23 21 22 23 25
59 59 59 59 60 61 62 64 65 68 68 68 66 62 56 51 48 45 42 39 36 35 33 31 30 28 26 25 25 25 26 26 26 25 24 24 24 23 23 25 26 28
62 61 60 59 59 63 68 70 72 72 69 67 66 61 54 50 46 41 38 36 35 33 31 29 27 26 25 25 25 25 25 24 25 25 24 24 24 25 26 27 29 30
62 61 58 57 61 67 71 71 70 69 67 67 65 58 51 45 41 38 36 35 33 30 28 27 26 26 26 26 25 25 24 24 24 26 25 25 26 27 28 28 28 26
60 58 57 60 67 71 72 70 69 69 69 67 62 54 47 41 38 36 34 32 30 29 27 26 26 26 26 26 25 25 24 23 25 26 25 25 26 26 26 24 22 19
60 60 63 69 74 75 73 72 71 71 68 62 55 48 43 39 37 34 32 30 29 28 26 26 26 26 26 26 25 24 23 23 24 24 22 23 23 21 20 19 17 15
65 68 73 77 77 75 73 72 71 68 62 56 50 45 41 38 35 32 30 29 28 27 26 27 27 27 26 25 24 23 22 21 22 21 19 19 18 17 16 15 14 14
72 76 79 79 76 74 72 70 68 63 57 52 48 44 40 37 34 31 30 29 28 28 27 27 27 25 24 23 23 22 20 18 19 18 17 17 16 15 14 13 13 13
78 79 79 76 73 70 68 66 63 59 55 52 48 44 40 36 33 31 31 30 29 28 27 26 24 24 24 23 22 20 17 16 17 16 16 15 14 13 13 14 14 14
78 78 77 74 70 68 65 62 61 59 56 52 48 44 39 36 34 32 32 31 29 27 25 23 24 26 25 21 18 17 16 16 16 16 15 14 13 14 15 15 14 13
77 78 76 73 69 67 65 63 63 61 56 50 46 42 38 36 34 33 33 31 27 24 24 26 27 25 22 18 17 17 17 17 17 16 14 13 14 16 17 16 14 13
76 77 76 72 69 67 66 65 65 61 54 49 44 40 38 37 35 34 32 28 25 25 28 29 25 21 18 17 18 18 18 17 16 16 15 15 16 18 19 17 14 12
71 72 72 72 71 67 66 66 64 59 53 48 43 40 38 37 36 33 29 27 28 30 29 25 20 18 17 18 18 18 18 18 17 16 16 17 19 21 20 17 13 12
68 69 70 72 70 67 65 64 61 57 52 47 43 40 39 37 34 31 29 31 33 30 24 20 19 18 17 18 19 18 18 18 18 17 18 20 22 22 19 15 13 13
68 68 68 69 69 68 64 61 59 56 51 46 42 40 38 35 31 31 34 35 32 25 21 20 19 18 18 19 19 19 18 19 19 19 21 25 24 21 18 16 15 15
69 70 71 74 76 73 65 62 60 56 50 45 42 39 36 33 32 36 37 33 26 22 21 20 19 18 18 19 19 19 19 20 20 21 23 25 22 18 17 17 16 16
73 72 73 77 78 73 66 64 61 55 49 44 41 39 36 35 37 38 34 27 23 22 22 20 20 19 19 19 19 19 20 21 22 23 23 21 17 16 17 17 16 16
80 77 75 76 74 69 66 65 60 53 48 46 42 39 38 40 40 34 28 24 23 23 22 21 20 20 19 19 19 19 19 21 23 23 21 18 15 15 16 16 15 17
82 80 78 78 75 71 68 65 60 55 51 49 45 42 42 40 34 28 26 25 25 24 22 21 20 20 19 19 18 18 19 21 23 20 17 15 15 16 16 15 15 17
79 79 79 80 79 75 69 65 62 58 53 50 47 44 40 35 29 27 27 26 25 24 22 21 21 20 19 18 18 18 19 20 20 16 14 13 15 16 15 14 16 17
80 78 78 79 76 69 64 62 61 58 52 50 49 42 34 30 28 28 27 26 25 24 22 22 22 20 19 19 18 18 19 18 15 13 12 13 13 14 14 14 16 17
82 81 80 79 73 64 60 61 61 56 52 52 49 39 30 28 29 28 28 27 26 24 23 23 22 21 19 19 19 19 18 15 12 11 11 11 12 13 14 15 17 16
81 83 81 77 70 62 59 60 60 57 54 53 48 36 29 29 29 29 29 29 26 24 24 24 22 20 19 19 20 20 17 13 10 9 10 11 12 13 14 15 15 15
79 82 77 69 63 60 60 60 59 58 56 51 43 34 30 30 30 30 31 29 26 25 24 24 23 21 20 20 21 19 15 11 9 9 9 11 12 13 13 13 14 14

ECMWFNIL_prec_cthk_123.txt.gz
RH
92 93 94 96 96 92 89 89 86 78 70 64 62 61 59 58 57 53 50 48 48 48 47 45 43 40 35 31 28 27 26 25 25 24 23 22 22 21 19 18 18 18
90 94 95 93 93 90 87 86 78 70 64 61 60 59 58 59 57 53 51 51 50 49 46 43 39 35 30 28 27 27 26 25 24 23 23 22 21 19 18 19 19 18
90 92 93 90 89 87 83 78 70 64 62 60 59 60 62 62 58 54 53 52 50 46 43 39 34 30 28 28 28 27 26 25 25 24 23 21 20 19 20 20 18 15
88 88 88 86 84 81 75 69 65 62 60 61 62 65 66 63 58 54 53 50 46 42 38 34 30 29 28 28 28 27 26 26 26 24 22 20 21 21 20 17 14 12
86 86 85 83 79 74 68 63 60 59 61 64 66 67 66 62 56 52 49 46 42 38 34 31 30 29 30 30 30 28 28 28 26 23 21 22 22 20 17 14 12 11
85 85 82 78 73 68 63 59 58 61 65 67 66 67 65 59 53 49 46 42 39 35 32 31 30 31 32 32 31 29 29 27 25 23 23 22 20 16 14 13 12 11
82 79 75 71 67 63 60 58 60 63 65 65 65 67 63 56 50 47 44 40 37 34 33 32 32 33 34 33 31 30 28 26 25 25 23 20 16 15 13 12 12 11
78 72 68 65 63 61 59 59 61 63 63 64 67 67 60 52 47 45 42 39 36 34 34 34 34 35 35 34 32 29 26 25 26 24 20 16 15 14 13 12 12 12
75 68 63 62 61 60 59 60 63 63 63 65 68 65 57 50 47 44 42 40 37 36 35 34 35 35 36 34 30 27 27 28 26 21 17 16 15 14 12 12 12 12
73 66 62 61 60 59 59 62 63 62 64 67 68 63 55 49 46 44 43 41 38 37 36 34 34 36 35 32 29 28 30 28 23 18 16 16 15 13 12 12 12 13
71 65 62 61 59 59 61 63 63 62 66 69 68 61 53 47 46 45 44 42 40 38 36 35 35 35 32 30 31 32 31 25 20 17 16 15 13 12 11 11 12 12
71 67 64 61 60 62 64 64 63 65 68 71 68 60 51 46 46 46 44 43 41 39 37 35 35 33 31 32 35 34 28 22 19 17 16 14 12 11 11 11 12 12
72 69 66 64 64 66 66 66 66 69 72 73 67 58 50 46 46 46 45 44 43 40 38 36 33 31 32 36 36 31 25 21 19 17 15 13 12 11 12 13 13 12
71 70 68 67 68 69 69 70 71 73 75 72 63 54 49 47 46 46 46 46 44 41 38 36 32 32 35 37 33 28 24 22 19 17 15 13 11 12 12 13 13 13
70 69 68 68 70 72 72 73 75 76 75 69 60 52 49 48 48 48 47 47 45 41 38 34 32 35 38 36 30 27 25 22 19 17 15 12 12 13 13 13 13 13
68 67 66 67 69 71 73 73 74 75 72 65 57 52 50 50 51 50 49 48 45 40 35 33 35 38 38 33 29 27 25 21 19 16 14 12 12 13 14 13 13 13
68 67 67 68 69 70 70 71 73 71 66 59 54 51 51 51 52 52 51 49 45 39 33 34 39 40 36 31 29 27 24 21 19 16 13 12 13 14 14 13 13 13
69 69 69 68 68 69 69 70 70 65 58 54 53 53 53 53 52 53 53 52 46 38 35 39 42 38 33 31 29 26 24 21 18 15 13 13 14 15 14 14 14 13
67 68 67 67 67 68 69 70 66 59 55 54 54 55 54 53 53 53 55 54 45 37 39 43 42 35 31 31 28 25 23 21 18 15 13 14 15 16 15 15 15 14
66 67 66 65 66 70 73 73 68 63 60 58 55 56 58 58 57 58 59 54 42 38 44 44 37 32 31 30 28 25 23 20 17 15 14 15 16 16 16 16 15 14
67 67 67 66 68 72 76 76 73 68 67 65 63 63 65 65 63 62 59 49 40 43 46 39 32 31 31 29 27 25 22 19 17 15 14 16 18 17 17 17 15 14
66 67 66 67 69 71 73 73 73 71 70 71 68 65 65 65 64 61 54 43 40 44 42 34 31 31 30 28 26 24 21 19 17 15 16 18 19 19 18 17 15 13
64 65 67 68 68 68 68 72 75 73 68 65 66 65 63 62 61 56 46 40 41 42 37 32 32 30 28 27 26 23 22 19 17 16 18 20 21 20 19 18 16 13
65 67 68 68 68 68 71 75 76 71 60 56 61 64 60 57 54 45 37 38 40 38 33 32 31 29 28 27 25 23 22 20 18 18 19 21 21 21 20 19 16 13
68 70 70 70 70 71 74 75 71 62 54 53 57 59 56 53 45 35 33 39 40 35 32 31 30 29 29 28 25 24 22 20 19 19 20 22 22 21 21 19 17 13
68 70 71 73 72 70 71 70 65 58 56 57 59 57 54 48 37 31 36 41 38 32 31 31 30 30 30 28 25 23 22 21 20 20 21 23 22 22 22 20 17 13